FW7304 Weather Reports


time (UTC)temp
F
wind
direction
speed
knots
gust
knots
rain 1hr
in
rain 24hr
in
rain mn
in
humidity
%
barometer
mb
20260506150403 55 88 2.6 2.6 0.00 0.00 0.00 39 1018.3
20260506145904 54 96 4.3 5.2 0.00 0.00 0.00 40 1018.2
20260506145402 53 46 2.6 4.3 0.00 0.00 0.00 41 1018.2
20260506144903 53 64 2.6 2.6 0.00 0.00 0.00 42 1018.2
20260506144403 52 23 2.6 2.6 0.00 0.00 0.00 43 1018.2
20260506143904 52 288 2.6 2.6 0.00 0.00 0.00 43 1018.2
20260506143403 51 322 1.7 2.6 0.00 0.00 0.00 44 1018.2
20260506142903 51 324 2.6 2.6 0.00 0.00 0.00 44 1018.2
20260506142404 50 18 2.6 2.6 0.00 0.00 0.00 46 1018.2
20260506141903 50 46 4.3 4.3 0.00 0.00 0.00 47 1018.2
20260506141403 50 28 2.6 2.6 0.00 0.00 0.00 47 1018.2
20260506140903 49 22 3.5 4.3 0.00 0.00 0.00 47 1018.1
20260506140403 49 217 0.9 0.9 0.00 0.00 0.00 49 1018.1
20260506135903 48 243 1.7 2.6 0.00 0.00 0.00 50 1018.0
20260506135404 47 202 1.7 1.7 0.00 0.00 0.00 51 1017.9
20260506134903 47 206 0.9 0.9 0.00 0.00 0.00 51 1017.9
20260506134402 46 266 1.7 1.7 0.00 0.00 0.00 53 1018.0
20260506133403 44 209 0.9 0.9 0.00 0.00 0.00 56 1017.8
20260506132903 43 206 0.9 0.9 0.00 0.00 0.00 58 1017.6
20260506132403 42 146 0.9 0.9 0.00 0.00 0.00 58 1017.5
20260506131902 40 249 0.0 0.9 0.00 0.00 0.00 61 1017.4
20260506131403 39 292 1.7 1.7 0.00 0.00 0.00 63 1017.2
20260506130903 38 154 0.9 2.6 0.00 0.00 0.00 64 1017.1
20260506130403 38 196 1.7 2.6 0.00 0.00 0.00 64 1017.1
20260506125903 37 174 1.7 1.7 0.00 0.00 0.00 65 1017.1
20260506125403 37 165 0.9 2.6 0.00 0.00 0.00 66 1017.1
20260506124903 37 184 1.7 1.7 0.00 0.00 0.00 67 1017.0
20260506124403 36 158 0.9 1.7 0.00 0.00 0.00 67 1017.0
20260506123903 37 117 0.9 1.7 0.00 0.00 0.00 65 1016.9
20260506123403 37 227 0.9 1.7 0.00 0.00 0.00 65 1016.8
20260506122903 37 185 0.9 0.9 0.00 0.00 0.00 65 1016.7
20260506122403 37 109 1.7 2.6 0.00 0.00 0.00 63 1016.6
20260506121903 37 137 1.7 1.7 0.00 0.00 0.00 63 1016.5
20260506121403 38 122 0.9 1.7 0.00 0.00 0.00 63 1016.5
20260506120903 38 95 2.6 2.6 0.00 0.00 0.00 63 1016.4
20260506120403 39 135 1.7 1.7 0.00 0.00 0.00 62 1016.4
20260506115904 39 117 1.7 1.7 0.00 0.00 0.00 61 1016.5
20260506114402 39 130 1.7 2.6 0.00 0.00 0.00 60 1016.6
20260506113904 40 97 1.7 1.7 0.00 0.00 0.00 58 1016.6
20260506113403 41 134 1.7 1.7 0.00 0.00 0.00 58 1016.6
20260506112903 41 115 1.7 1.7 0.00 0.00 0.00 57 1016.5
20260506112403 42 150 0.9 1.7 0.00 0.00 0.00 55 1016.5
20260506111403 42 312 1.7 2.6 0.00 0.00 0.00 58 1016.5
20260506110903 42 329 1.7 2.6 0.00 0.00 0.00 58 1016.5
20260506110403 40 274 2.6 4.3 0.00 0.00 0.00 63 1016.4
20260506105903 39 277 2.6 4.3 0.00 0.00 0.00 62 1016.4
20260506104903 38 272 0.9 1.7 0.00 0.00 0.00 63 1016.4
20260506104402 38 49 1.7 2.6 0.00 0.00 0.00 64 1016.2
20260506103404 37 178 1.7 2.6 0.00 0.00 0.00 63 1016.1
20260506102903 37 84 1.7 2.6 0.00 0.00 0.00 61 1016.0
20260506102404 38 123 2.6 2.6 0.00 0.00 0.00 62 1016.0
20260506101903 38 68 0.9 0.9 0.00 0.00 0.00 61 1016.0
20260506101402 39 97 0.9 1.7 0.00 0.00 0.00 59 1016.0
20260506100903 39 125 1.7 2.6 0.00 0.00 0.00 59 1016.0
20260506100403 40 143 2.6 2.6 0.00 0.00 0.00 58 1015.9
20260506095904 40 48 1.7 2.6 0.00 0.00 0.00 58 1016.0
20260506095404 41 42 1.7 4.3 0.00 0.00 0.00 56 1016.0
20260506094903 41 106 2.6 2.6 0.00 0.00 0.00 55 1016.1
20260506094404 42 125 2.6 2.6 0.00 0.00 0.00 53 1016.1
20260506093903 43 153 2.6 2.6 0.00 0.00 0.00 52 1016.1
20260506092903 45 154 1.7 2.6 0.00 0.00 0.00 49 1016.2
20260506092403 48 147 3.5 5.2 0.00 0.00 0.00 44 1016.1
20260506091904 48 262 4.3 5.2 0.00 0.00 0.00 48 1016.1
20260506091403 48 312 2.6 2.6 0.00 0.00 0.00 48 1016.0
20260506090403 48 266 4.3 5.2 0.00 0.00 0.00 48 1015.9
20260506085904 48 234 1.7 4.3 0.00 0.00 0.00 48 1015.9
20260506085403 48 227 2.6 4.3 0.00 0.00 0.00 48 1015.9
20260506084403 48 255 3.5 6.1 0.00 0.00 0.00 47 1015.9
20260506083903 48 247 4.3 5.2 0.00 0.00 0.00 47 1015.9
20260506083403 48 233 3.5 4.3 0.00 0.00 0.00 47 1015.9
20260506081903 49 240 2.6 2.6 0.00 0.00 0.00 46 1015.9
20260506081404 49 250 1.7 6.1 0.00 0.00 0.00 45 1015.9
20260506080903 49 223 5.2 7.0 0.00 0.00 0.00 45 1015.8
20260506080402 49 225 5.2 7.0 0.00 0.00 0.00 45 1015.9
20260506072403 49 248 1.7 5.2 0.00 0.00 0.00 44 1016.0
20260506071903 49 230 4.3 5.2 0.00 0.00 0.00 44 1015.9
20260506071403 49 210 2.6 4.3 0.00 0.00 0.00 44 1015.9
20260506070903 49 260 2.6 4.3 0.00 0.00 0.00 43 1015.9
20260506070404 49 235 3.5 4.3 0.00 0.00 0.00 43 1015.9
20260506062403 50 237 5.2 6.1 0.00 0.00 0.00 41 1015.6
20260506061403 50 240 2.6 4.3 0.00 0.00 0.00 42 1015.6
20260506060904 50 250 4.3 7.8 0.00 0.00 0.00 41 1015.6
20260506060403 49 225 2.6 2.6 0.00 0.00 0.00 42 1015.6
20260506051404 50 128 1.7 1.7 0.00 0.00 0.00 39 1015.4
20260506050903 50 231 2.6 2.6 0.00 0.00 0.00 39 1015.3
20260506050403 51 229 1.7 2.6 0.00 0.00 0.00 39 1015.3
20260506044903 51 266 2.6 4.3 0.00 0.00 0.00 38 1015.2
20260506044404 51 289 4.3 4.3 0.00 0.00 0.00 38 1015.2
20260506043903 52 289 2.6 5.2 0.00 0.00 0.00 37 1015.2
20260506043404 52 271 5.2 7.0 0.00 0.00 0.00 36 1015.2
20260506042403 52 267 2.6 5.2 0.00 0.00 0.00 36 1015.0
20260506041904 52 250 5.2 7.0 0.00 0.00 0.00 36 1015.0
20260506041403 52 258 3.5 5.2 0.00 0.00 0.00 36 1015.0
20260506040904 52 255 7.0 7.0 0.00 0.00 0.00 35 1015.0
20260506040403 52 264 6.1 7.0 0.00 0.00 0.00 36 1014.9
20260506035904 52 243 6.1 8.7 0.00 0.00 0.00 36 1014.8
20260506035403 52 245 5.2 10.4 0.00 0.00 0.00 35 1014.8
20260506034903 52 247 4.3 6.1 0.00 0.00 0.00 36 1014.7
20260506034404 52 221 2.6 7.0 0.00 0.00 0.00 36 1014.7
20260506033403 52 245 6.1 6.1 0.00 0.00 0.00 36 1014.4
20260506032404 52 265 7.8 8.7 0.00 0.00 0.00 35 1014.2
20260506031404 52 252 6.1 7.0 0.00 0.00 0.00 34 1014.0
20260506025903 52 230 6.1 8.7 0.00 0.00 0.00 35 1013.8
20260506025403 52 246 5.2 7.8 0.00 0.00 0.00 35 1013.7
20260506024903 52 240 5.2 7.0 0.00 0.00 0.00 35 1013.6
20260506024403 53 239 4.3 5.2 0.00 0.00 0.00 35 1013.6
20260506023903 53 248 5.2 7.0 0.00 0.00 0.00 35 1013.5
20260506023404 53 259 3.5 7.0 0.00 0.00 0.00 35 1013.5
20260506022904 53 252 6.1 8.7 0.00 0.00 0.00 35 1013.3
20260506022404 53 269 5.2 7.0 0.00 0.00 0.00 34 1013.3
20260506021903 53 256 8.7 13.0 0.00 0.00 0.00 33 1013.2
20260506021404 53 256 10.4 11.3 0.00 0.00 0.00 34 1013.1
20260506020903 54 245 6.1 7.8 0.00 0.00 0.00 34 1013.0
20260506015904 55 267 6.1 11.3 0.00 0.00 0.00 34 1012.9
20260506014904 55 260 7.0 7.8 0.00 0.00 0.00 33 1012.8
20260506013903 56 245 6.1 10.4 0.00 0.00 0.00 33 1012.7
20260506013403 56 263 7.8 10.4 0.00 0.00 0.00 33 1012.6
20260506012903 56 252 8.7 10.4 0.00 0.00 0.00 33 1012.5
20260506012404 56 234 7.8 12.2 0.00 0.00 0.00 32 1012.5
20260506011904 56 239 9.6 10.4 0.00 0.00 0.00 32 1012.4
20260506010903 57 237 8.7 8.7 0.00 0.00 0.00 31 1012.4
20260506010403 57 234 6.1 12.2 0.00 0.00 0.00 32 1012.3
20260506005903 57 246 7.8 11.3 0.00 0.00 0.00 31 1012.3
20260506005404 56 231 7.8 13.0 0.00 0.00 0.00 32 1012.3
20260506004404 58 262 7.0 13.0 0.00 0.00 0.00 32 1012.1
20260506003903 58 243 7.0 8.7 0.00 0.00 0.00 32 1012.1
20260506003403 57 209 10.4 10.4 0.00 0.00 0.00 32 1012.1
20260506002903 57 227 9.6 13.0 0.00 0.00 0.00 33 1012.1
20260506002405 59 256 7.0 15.6 0.00 0.00 0.00 32 1012.1
20260506001903 58 262 6.1 13.0 0.00 0.00 0.00 32 1012.0
20260506001404 57 236 4.3 11.3 0.00 0.00 0.00 33 1011.9
20260506000903 57 236 11.3 13.9 0.00 0.00 0.00 33 1011.9
20260505235903 57 213 8.7 13.0 0.00 0.00 0.00 34 1011.8
20260505234903 59 257 13.9 18.2 0.00 0.00 0.00 31 1011.5
20260505234405 60 220 10.4 12.2 0.00 0.00 0.00 28 1011.4
20260505233904 61 232 10.4 17.4 0.00 0.00 0.00 27 1011.4
20260505233403 60 260 11.3 15.6 0.00 0.00 0.00 27 1011.2
20260505232904 60 226 7.8 13.9 0.00 0.00 0.00 27 1011.3
20260505232405 61 216 9.6 13.9 0.00 0.00 0.00 26 1011.3
20260505231904 61 244 8.7 13.0 0.00 0.00 0.00 26 1011.2
20260505231403 59 247 10.4 14.8 0.00 0.00 0.00 27 1011.2
20260505230903 59 202 13.0 13.9 0.00 0.00 0.00 27 1011.3
20260505230404 60 262 8.7 10.4 0.00 0.00 0.00 28 1011.2
20260505225903 60 229 12.2 14.8 0.00 0.00 0.00 27 1011.3
20260505225403 59 206 10.4 14.8 0.00 0.00 0.00 28 1011.4
20260505224904 58 222 14.8 20.9 0.00 0.00 0.00 28 1011.4
20260505224403 59 220 15.6 19.1 0.00 0.00 0.00 27 1011.3
20260505223903 59 217 12.2 15.6 0.00 0.00 0.00 27 1011.4
20260505223404 60 224 15.6 17.4 0.00 0.00 0.00 26 1011.4
20260505222904 58 222 13.9 14.8 0.00 0.00 0.00 29 1011.5
20260505222403 59 208 8.7 18.2 0.00 0.00 0.00 28 1011.5
20260505221904 58 228 7.8 18.2 0.00 0.00 0.00 29 1011.7
20260505221404 59 213 12.2 14.8 0.00 0.00 0.00 28 1011.7
20260505220903 61 245 11.3 13.9 0.00 0.00 0.00 25 1011.8
20260505220404 61 256 7.8 11.3 0.00 0.00 0.00 25 1011.9
20260505215904 60 246 6.1 12.2 0.00 0.00 0.00 26 1011.9
20260505214403 60 229 7.8 8.7 0.00 0.00 0.00 26 1012.0
20260505213903 60 166 13.0 15.6 0.00 0.00 0.00 26 1011.9
20260505213404 61 213 13.0 14.8 0.00 0.00 0.00 27 1012.0
20260505212404 61 242 12.2 25.2 0.00 0.00 0.00 29 1012.1
20260505210904 60 227 8.7 11.3 0.00 0.00 0.00 32 1012.3
20260505210405 60 223 15.6 20.0 0.00 0.00 0.00 32 1012.4
20260505205904 60 231 11.3 13.9 0.00 0.00 0.00 33 1012.4
20260505205404 61 225 8.7 13.0 0.00 0.00 0.00 32 1012.4
20260505204903 62 236 7.8 11.3 0.00 0.00 0.00 32 1012.4
20260505204403 61 235 7.8 11.3 0.00 0.00 0.00 34 1012.3
20260505203903 61 259 10.4 18.2 0.00 0.00 0.00 33 1012.5
20260505203403 61 229 13.0 14.8 0.00 0.00 0.00 31 1012.5
20260505202903 62 236 10.4 11.3 0.00 0.00 0.00 30 1012.5
20260505202403 62 256 8.7 11.3 0.00 0.00 0.00 31 1012.5
20260505201904 60 243 11.3 13.0 0.00 0.00 0.00 32 1012.6
20260505201403 60 238 9.6 13.0 0.00 0.00 0.00 33 1012.6
20260505200904 60 244 7.8 13.0 0.00 0.00 0.00 34 1012.7
20260505200403 59 220 10.4 12.2 0.00 0.00 0.00 35 1012.8
20260505195403 59 258 10.4 13.0 0.00 0.00 0.00 33 1012.7
20260505194903 58 248 10.4 11.3 0.00 0.00 0.00 35 1012.7
20260505194403 59 249 7.8 13.0 0.00 0.00 0.00 35 1012.8
20260505193904 57 216 6.1 13.0 0.00 0.00 0.00 36 1012.9
20260505193403 58 232 11.3 13.0 0.00 0.00 0.00 33 1012.9
20260505191904 57 232 12.2 13.0 0.00 0.00 0.00 36 1013.1
20260505190904 59 196 6.1 13.0 0.00 0.00 0.00 35 1013.0
20260505190403 58 243 9.6 14.8 0.00 0.00 0.00 37 1013.0
20260505185904 58 196 7.8 14.8 0.00 0.00 0.00 38 1012.8
20260505185403 58 158 5.2 13.0 0.00 0.00 0.00 38 1012.9
20260505184904 57 193 7.8 13.0 0.00 0.00 0.00 40 1013.0
20260505184404 56 173 8.7 11.3 0.00 0.00 0.00 43 1013.1
20260505183904 56 252 8.7 11.3 0.00 0.00 0.00 42 1013.1
20260505183403 55 212 7.8 11.3 0.00 0.00 0.00 44 1013.2
20260505182904 56 222 6.1 10.4 0.00 0.00 0.00 42 1013.2
20260505182404 56 254 6.1 8.7 0.00 0.00 0.00 44 1013.3
20260505181904 55 262 7.8 13.0 0.00 0.00 0.00 44 1013.3
20260505181404 56 232 8.7 13.0 0.00 0.00 0.00 43 1013.1
20260505180904 58 227 10.4 13.9 0.00 0.00 0.00 40 1013.0
20260505180403 58 251 5.2 15.6 0.00 0.00 0.00 40 1013.0
20260505175904 57 251 6.1 15.6 0.00 0.00 0.00 43 1013.0
20260505175404 57 230 6.1 8.7 0.00 0.00 0.00 41 1013.0
20260505174903 57 240 8.7 12.2 0.00 0.00 0.00 39 1013.0
20260505174404 57 249 7.0 12.2 0.00 0.00 0.00 42 1012.9
20260505173404 57 228 10.4 12.2 0.00 0.00 0.00 41 1012.8
20260505172904 58 223 8.7 13.0 0.00 0.00 0.00 38 1012.7
20260505172404 59 229 7.0 8.7 0.00 0.00 0.00 37 1012.6
20260505171904 59 238 7.0 10.4 0.00 0.00 0.00 37 1012.6
20260505171405 59 258 9.6 11.3 0.00 0.00 0.00 39 1012.6
20260505170904 58 244 10.4 10.4 0.00 0.00 0.00 38 1012.7
20260505170404 58 194 6.1 7.0 0.00 0.00 0.00 38 1012.8
20260505165904 57 193 7.8 7.8 0.00 0.00 0.00 40 1012.8
20260505165403 58 203 10.4 11.3 0.00 0.00 0.00 35 1012.8
20260505164904 57 183 7.0 8.7 0.00 0.00 0.00 38 1012.7
20260505164403 57 171 8.7 11.3 0.00 0.00 0.00 38 1012.8
20260505163905 56 161 8.7 10.4 0.00 0.00 0.00 42 1012.9
20260505163404 56 183 6.1 7.8 0.00 0.00 0.00 42 1012.9
20260505162903 56 183 8.7 13.0 0.00 0.00 0.00 41 1012.9
20260505162404 56 171 7.8 13.0 0.00 0.00 0.00 42 1012.8
20260505160404 55 186 7.0 11.3 0.00 0.00 0.00 44 1013.3
20260505152903 51 203 4.3 7.0 0.00 0.00 0.00 50 1013.2
20260505152404 51 137 6.1 7.8 0.00 0.00 0.00 50 1013.2
20260505151905 51 147 7.0 8.7 0.00 0.00 0.00 50 1013.1
20260505151403 51 214 10.4 11.3 0.00 0.00 0.00 50 1013.1